This is the latest recevied weather packets stored in our database for station/object OE3APM-13. If no packets are shown the sender has not sent any weather packets the latest 10 day(s).
| Time | Temp. | Humidity | Pressure | Rain* | Wind** | Luminosity | Snow |
|---|---|---|---|---|---|---|---|
| 1777547551 | 11.67° C | 32% | 1029.2 hPa | 0 mm | - | 856 W/m² | - |
| 1777547252 | 11.67° C | 33% | 1029.2 hPa | 0 mm | - | 856 W/m² | - |
| 1777546953 | 11.67° C | 36% | 1029.2 hPa | 0 mm | - | 860 W/m² | - |
| 1777546652 | 11.67° C | 32% | 1029.2 hPa | 0 mm | - | 860 W/m² | - |
| 1777546347 | 11.67° C | 34% | 1029.4 hPa | 0 mm | - | 858 W/m² | - |
| 1777546048 | 11.11° C | 33% | 1029.4 hPa | 0 mm | - | 860 W/m² | - |
| 1777545747 | 11.11° C | 34% | 1029.5 hPa | 0 mm | - | 861 W/m² | - |
| 1777545447 | 11.11° C | 40% | 1029.6 hPa | 0 mm | - | 861 W/m² | - |
| 1777545147 | 11.11° C | 33% | 1029.6 hPa | 0 mm | - | 863 W/m² | - |
| 1777544847 | 11.11° C | 34% | 1029.6 hPa | 0 mm | - | 858 W/m² | - |
| 1777544548 | 11.11° C | 35% | 1029.6 hPa | 0 mm | - | 856 W/m² | - |
| 1777544247 | 11.11° C | 32% | 1029.6 hPa | 0 mm | - | 856 W/m² | - |
| 1777543948 | 11.11° C | 35% | 1029.6 hPa | 0 mm | - | 858 W/m² | - |
| 1777543645 | 11.11° C | 36% | 1029.6 hPa | 0 mm | - | 851 W/m² | - |
| 1777543345 | 10.56° C | 35% | 1029.7 hPa | 0 mm | - | 849 W/m² | - |
| 1777543045 | 10.56° C | 38% | 1029.6 hPa | 0 mm | - | 846 W/m² | - |
| 1777542745 | 10° C | 35% | 1029.7 hPa | 0 mm | - | 844 W/m² | - |
| 1777542446 | 9.44° C | 46% | 1029.7 hPa | 0 mm | - | 838 W/m² | - |
| 1777542147 | 9.44° C | 37% | 1029.8 hPa | 0 mm | - | 833 W/m² | - |
| 1777541846 | 9.44° C | 38% | 1029.9 hPa | 0 mm | - | 828 W/m² | - |
| 1777541544 | 9.44° C | 39% | 1029.8 hPa | 0 mm | - | 826 W/m² | - |
| 1777541243 | 9.44° C | 37% | 1029.9 hPa | 0 mm | - | 819 W/m² | - |
| 1777540939 | 9.44° C | 42% | 1029.9 hPa | 0 mm | - | 812 W/m² | - |
| 1777540639 | 9.44° C | 40% | 1029.9 hPa | 0 mm | - | 803 W/m² | - |
| 1777540339 | 8.89° C | 40% | 1030 hPa | 0 mm | - | 800 W/m² | - |
* Rain latest hour (hover to see other rain measurements)
** Current wind speed in m/s (hover to see current wind gust speed)